Regional Weather Roundup
Issued by NWS Upton, NY

Current Version | Previous Version | Text Only | Print | Product List | Glossary On
Versions: 1 2 3 4 5 6 7 8 9 10 11 12 13 14 15 16 17 18 19 20 21 22 23 24 25 26 27
000
ASUS41 KOKX 220508
RWROKX

REGIONAL WEATHER ROUNDUP
NATIONAL WEATHER SERVICE NEW YORK NY
1200 AM EST WED FEB 22 2017

NOTE: "FAIR" INDICATES FEW OR NO CLOUDS BELOW 12,000 FEET WITH NO
SIGNIFICANT WEATHER AND/OR OBSTRUCTIONS TO VISIBILITY.

NYZ071-072-176-178-NJZ106-104-220600-
NEW YORK CITY METRO AREA

CITY           SKY/WX    TMP DP  RH WIND       PRES   REMARKS
Central Park   PTCLDY    43  32  65 SW8G22    30.14F
Wall St Helipt NOT AVBL
LaGuardia APRT CLOUDY    45  33  63 SW10        N/A
Kennedy INTL   MOCLDY    41  37  86 SW9       30.15F
Breezy Point     N/A     39 N/A N/A SW6         N/A  WCI  35
Newark/Liberty CLOUDY    41  33  73 SW10      30.13F
Teterboro      NOT AVBL
$$

NYZ177-179-078>081-220600-
LONG ISLAND NEW YORK

CITY           SKY/WX    TMP DP  RH WIND       PRES   REMARKS
Jones Beach      N/A     41 N/A N/A SW5         N/A
Matinecock PT    N/A     41 N/A N/A SW10        N/A
Farmingdale    NOT AVBL
MacArthur/ISP  CLOUDY    40  37  89 S7        30.13F
Shirley        NOT AVBL
Westhampton    NOT AVBL
Southampton    NOT AVBL
Bridgehampton  NOT AVBL
East Hampton     N/A     39  34  84 S6        30.14F WCI  35
Montauk          N/A     41  35  79 S6        30.15F
$$

NYZ052-065-067-220600-
HUDSON VALLEY

CITY           SKY/WX    TMP DP  RH WIND       PRES   REMARKS
White Plains   NOT AVBL
Newburgh       CLOUDY    41  32  70 SW6       30.09F
Montgomery     NOT AVBL
Poughkeepsie   NOT AVBL
Albany         CLOUDY    40  28  62 S8        30.06R WCI  34
$$

NJZ001-105-106-008-010-013-015-019>022-104-220600-
NEW JERSEY

CITY           SKY/WX    TMP DP  RH WIND       PRES   REMARKS
Newark/Liberty CLOUDY    41  33  73 SW10      30.13F
Teterboro      NOT AVBL
Caldwell       NOT AVBL
Somerville     NOT AVBL
Linden         NOT AVBL
Sussex         NOT AVBL
Andover          N/A     40  31  70 S3        30.08F
Trenton        NOT AVBL
Millville      NOT AVBL
Atlantic City  MOCLDY    42  36  79 S6        30.14F
Wrightstown    PTCLDY    38  34  85 CALM      30.11F
Toms River     NOT AVBL
Belmar         NOT AVBL
$$

PAZ047>061-062-071-220600-
EASTERN PENNSYLVANIA

CITY           SKY/WX    TMP DP  RH WIND       PRES   REMARKS
Philadelphia   CLOUDY    42  34  73 CALM      30.14F
Allentown      NOT AVBL
Scranton       NOT AVBL
$$

CTZ002-004>006-009-010-012-RIZ004-006-007-MAZ004-011-015-220600-
SOUTHERN NEW ENGLAND
 IN CT

CITY           SKY/WX    TMP DP  RH WIND       PRES   REMARKS
Bradley INTL   CLOUDY    36  30  79 S9        30.10F WCI  29
Hartford       MOCLDY    37  31  78 S5        30.11F WCI  33
Danbury        NOT AVBL
Wtrbury/Oxford PTCLDY    36  28  75 SW7       30.10F WCI  30
Bridgeport     NOT AVBL
Meriden        CLOUDY    38  31  76 S5        30.12F WCI  34
New Haven      NOT AVBL
Chester          N/A     37  32  81 S5        30.11F WCI  34
Groton         CLOUDY    39  34  82 S7        30.13F WCI  34
Wilimantic     CLOUDY    36  31  82 CALM      30.13F

 IN RI

CITY           SKY/WX    TMP DP  RH WIND       PRES   REMARKS
Providence     MOCLDY    36  30  79 S7        30.13F WCI  30
Block Island   CLOUDY    40  35  83 SW12      30.14F WCI  33
Westerly       PTCLDY    39  32  76 SW3       30.14F
 IN MA

CITY           SKY/WX    TMP DP  RH WIND       PRES   REMARKS
Boston         CLOUDY    38  30  73 SW10      30.12F WCI  31
Worcester      CLOUDY    33  26  75 SW10      30.06F WCI  25
Westfield      CLOUDY    36  29  75 S8        30.08F WCI  30
Provincetown   MOCLDY    37  31  78 S12       30.14F WCI  29
Nantucket      MOCLDY    37  31  78 SW10      30.16F WCI  30
$$

ANZ330-335-338-340-345-350-353-355-220600-
COASTAL MARINE OBSERVATIONS


STATION/POSITION TIME  SKY/WX   TEMP    WIND        PRES    VSBY  WAVE
                                AIR SEA DIR/SP/G                  HT/PER
                 (UTC)          (F)     (DEG/KT/KT) (MB)    (MI)  (FT/S)
NY HARB ENTRANCE 0350            43 42  200/  8/ 10 1021.2          2/ 3
20 S FIRE ISLAND 0450            43 43  190/ 10/ 12 1020.5          2/ 6
GREAT SOUTH BAY  NOT AVBL
23 SSW MONTAUK P 0350            43 46              1022.1          2/ 3
15 E BARNEGAT LI 0430               43                N/A           2/ 5
HUDSON CANYON    0350               49              1022.1          2/ 7
KINGS POINT      0448            42 40              1019.9
EXECUTION ROCKS  NOT AVBL
CENTRAL LI SOUND 0430            39     190/  4/  6   N/A           0
EASTERN LI SOUND NOT AVBL
ROBBINS REEF     0448            42     220/  9/ 11 1020.6
$$


>>>>>>>>>>>>>>>>>>>>>>>>>>>> KEY <<<<<<<<<<<<<<<<<<<<<<<<<<<
>                                                          <
>     SKY/WX - Sky Condition/Present Weather               <
>     TMP    - Temperature in Fahrenheit                   <
>     DP     - Dew Point in Fahrenheit                     <
>     RH     - Relative Humidity in Percent                <
>     WIND   - Direction (from) and Speed in MPH           <
>     PRES   - Mean Sea Level Pressure (inches of Hg)      <
>     WCI    - Wind Chill Index                            <
>     VSB    - VISIBILITY IN MILES                         <
>     HX     - HEAT INDEX                                  <
>     TC     - TEMPERATURE IN CELSIUS                      <
>     VRB    - VARIABLE WIND DIRECTION                     <
>                                                          <
>>>>>>>>>>>>>>>>>>>>>>>>>>>> KEY <<<<<<<<<<<<<<<<<<<<<<<<<<<




USA.gov is the U.S. government's official web portal to all federal, state and local government web resources and services.